Regional Weather Roundup
Issued by NWS Newport/Morehead, NC

Current Version | Previous Version | Text Only | Print | Product List | Glossary Off
Versions: 1 2 3 4 5 6 7 8 9 10 11 12 13 14 15 16 17 18 19 20 21 22 23 24 25 26 27 28 29 30 31 32 33 34 35 36 37 38 39 40 41 42 43 44 45 46 47 48 49 50
000 ASUS42 KMHX 180810 RWRMHX WEATHER ROUNDUP FOR EASTERN NORTH CAROLINA NATIONAL WEATHER SERVICE NEWPORT/MOREHEAD CITY NC 300 AM EST THU DEC 18 2014 NOTE: "FAIR" INDICATES FEW OR NO CLOUDS BELOW 12,000 FEET WITH NO SIGNIFICANT WEATHER AND/OR OBSTRUCTIONS TO VISIBILITY NCZ015>017-031-032-045>047-102-103-180900- NORTH COAST CITY SKY/WX TMP DP RH WIND PRES REMARKS EDENTON N/A 42 32 69 NW6 30.08R ELIZABETH CITY CLEAR 44 33 65 N6 30.08R KITTY HAWK MOSUNNY 46 38 75 NW6 30.05R MANTEO PTCLDY 46 38 75 NW7 30.06R $$ NCZ045>047-081-094-103-104-180900- CENTRAL COAST CITY SKY/WX TMP DP RH WIND PRES REMARKS FRISCO MOCLDY 49 45 86 NW7 30.05R SWANQUARTER N/A 45 N/A N/A NW9 30.03S $$ NCZ095-097-098-100-101-180900- SOUTHERN COAST CITY SKY/WX TMP DP RH WIND PRES REMARKS BEAUFORT MOCLDY 48 42 80 NW8 30.08R CEDAR ISLAND N/A 48 N/A N/A W5 30.09S JACKSONVILLE PTCLDY 41 39 93 W6 30.09R PINEY ISLAND NOT AVBL WILMINGTON CLEAR 39 36 89 CALM 30.09R $$ NCZ011>013-027>030-043-044-078>080-089-090>093-098-180900- COASTAL PLAIN CITY SKY/WX TMP DP RH WIND PRES REMARKS AHOSKIE CLEAR 32 31 96 CALM 30.10S CLINTON PTCLDY 38 38 100 CALM 30.10S ELIZABETHTOWN CLEAR 38 37 94 CALM 30.09S GOLDSBORO MOCLDY 40 40 98 CALM 30.08R GREENVILLE MOCLDY 36 36 100 N3 30.11R FOG HAVELOCK CLEAR 46 40 79 W8 30.09R KENANSVILLE MOCLDY 37 37 99 CALM 30.10R KINSTON MOCLDY 38 37 97 NW3 30.10R NEW BERN MOCLDY 45 39 79 W3 30.09R RICHLANDS PTCLDY 36 32 87 CALM 30.10R ROCKY MOUNT MOCLDY 41 29 62 NW5 30.10R WASHINGTON MOCLDY 39 37 94 CALM 30.09R WHITEVILLE CLEAR 37 36 95 CALM 30.08S $$ AMZ130-135-150-152-154-156-158-170-250-252-270-ANZ085-086-088-633-658-670-180900- MARINE OBSERVATIONS STATION/POSITION TIME TEMP WIND PRES WAVE SWELL AIR SEA DIR/SP/G HT/PER HT/PER (UTC) (F) (DEG/KT/KT) (MB) (FT/S) (FT/S) CHESAPEAKE LIGHT 0700 44 360/ 20/ 22 1018.3 64 E VA BEACH 0800 50 54 350/ 19/ 21 1016.2 3/ 8 2/ 8 DUCK 0800 46 49 330/ 14/ 16 1016.8 2 E DUCK 0800 49 N/A 1/11 10 NE DUCK 0800 51 N/A 2/ 8 OREGON INLET 0800 47 51 290/ 8/ 11 1017.5 13E OREGON INLT 0800 53 N/A 2/ 8 HATTERAS CG 0800 51 54 290/ 10/ 12 1017.9 DIAMOND BUOY 0800 56 1017.4 3/ 5 17 S OCRACOKE NOT AVBL CAPE LOOKOUT 0700 54 280/ 9/ 10 1017.9 BEAUFORT LAB 0800 50 53 310/ 4/ 8 1017.3 30 SE NEW RIVER 0800 57 60 280/ 10/ 12 1018.7 2/ 7 2/ 7 5 SE WRIGHTSVLE NOT AVBL 225 S CAPE HAT 0651 69 72 270/ 8/ 12 1018.1 5/ 7 5/ 7 41 SE CHARLESTON 0800 61 73 290/ 8/ 10 1018.7 2/11 2/11 $$

USA.gov is the U.S. government's official web portal to all federal, state and local government web resources and services.